Home   Weather   Latiano   Past weeks
Flag for Italy

Past Weather in Latiano, Italy — Yesterday and Last 2 Weeks

Now
39 °F

Sunny.


Feels Like: 37 °F
Forecast: 57 / 42 °F
Wind: 3 mph from South

Location: Brindisi Airport

Current Time: Jan 17, 2019 at 8:48:06 am

Latest Report: Jan 17, 2019 at 8:20 am


Visibility: 10 mi

Pressure: 30.15 "Hg

Humidity: 87%

Dew Point: 36 °F

Location of LatianoLocation

Past Weather in Latiano — Graph

°F

Latiano Temperature Yesterday

Maximum temperature yesterday: 54 °F (at 12:50 pm)
Minimum temperature yesterday: 32 °F (at 6:20 am)
Average temperature yesterday: 43 °F

High & Low Weather Summary for the Past Weeks

 TemperatureHumidityPressure
High54 °F (Jan 2, 12:20 pm)100% (Jan 4, 11:50 am)30.24 "Hg (Jan 4, 11:50 am)
Low32 °F (Jan 16, 6:20 am)27% (Jan 13, 2:50 am)29.45 "Hg (Jan 9, 3:20 pm)
Average45 °F67%29.92 "Hg
* Reported Jan 2 7:20 am — Jan 17 7:20 am, Latiano. Weather by CustomWeather, © 2019

Note: Actual official high and low records may vary slightly from our data, if they occured in-between our weather recording intervals... More about our weather records

Advertising

Latiano Weather History for the Previous 24 Hours

Scroll right to see more
 ConditionsComfort  
Time TempWeatherWind HumidityBarometerVisibility
7:20 am
Thu, Jan 17
37 °FSunny.3 mph93%30.15 "Hg10 mi
6:50 am36 °FClear.2 mph87%30.15 "Hg10 mi
6:20 am36 °FClear.2 mph87%30.15 "Hg10 mi
5:50 am36 °FClear.5 mph87%30.15 "Hg10 mi
5:20 am37 °FClear.5 mph81%30.15 "Hg10 mi
4:50 am39 °FClear.5 mph81%30.15 "Hg10 mi
4:20 am37 °FClear.8 mph81%30.15 "Hg10 mi
3:50 am36 °FClear.9 mph87%30.15 "Hg10 mi
3:20 am37 °FClear.5 mph81%30.15 "Hg10 mi
2:50 am37 °FClear.7 mph81%30.15 "Hg10 mi
2:20 am37 °FClear.8 mph81%30.18 "Hg10 mi
1:50 am37 °FClear.10 mph81%30.18 "Hg10 mi
1:20 am37 °FClear.9 mph81%30.18 "Hg10 mi
12:50 am39 °FClear.9 mph75%30.18 "Hg10 mi
12:20 am37 °FClear.7 mph81%30.18 "Hg10 mi
11:50 pm
Wed, Jan 16
37 °FClear.3 mph81%30.18 "Hg10 mi
10:50 pm41 °FClear.5 mph76%30.21 "Hg10 mi
10:20 pm37 °FClear.3 mph81%30.21 "Hg10 mi
9:50 pm39 °FClear.5 mph75%30.21 "Hg10 mi
9:20 pm39 °FClear.7 mph75%30.18 "Hg10 mi
8:50 pm39 °FClear.8 mph75%30.18 "Hg10 mi
8:20 pm39 °FClear.3 mph75%30.18 "Hg10 mi
7:50 pm41 °FClear.1 mph76%30.18 "Hg10 mi
6:50 pm43 °FClear.2 mph71%30.18 "Hg10 mi
6:20 pm43 °FClear.3 mph71%30.18 "Hg10 mi
5:50 pm45 °FClear.3 mph71%30.18 "Hg10 mi
5:20 pm48 °FClear.2 mph62%30.18 "Hg10 mi
4:50 pm48 °FClear.3 mph62%30.18 "Hg10 mi
4:20 pm52 °FSunny.2 mph50%30.18 "Hg10 mi
3:50 pm52 °FSunny.3 mph50%30.18 "Hg10 mi
3:20 pm52 °FPassing clouds.3 mph47%30.18 "HgN/A
2:50 pm54 °FSunny.3 mph38%30.18 "Hg10 mi
2:20 pm54 °FPassing clouds.6 mph35%30.18 "HgN/A
1:50 pm54 °FSunny.8 mph38%30.18 "Hg10 mi
1:20 pm54 °FSunny.9 mph35%30.18 "Hg10 mi
12:50 pm54 °FSunny.9 mph38%30.18 "Hg10 mi
12:20 pm52 °FPassing clouds.9 mph38%30.18 "HgN/A
11:50 am52 °FPassing clouds.7 mph32%30.21 "HgN/A
11:20 am52 °FSunny.8 mph32%30.21 "Hg10 mi
10:50 am50 °FSunny.9 mph37%30.24 "Hg10 mi
10:20 am48 °FSunny.8 mph50%30.24 "Hg10 mi
9:50 am46 °FSunny.7 mph53%30.24 "Hg10 mi
9:20 am43 °FSunny.7 mph61%30.24 "Hg10 mi
8:50 am39 °FSunny.8 mph65%30.24 "Hg10 mi
8:20 am36 °FSunny.10 mph75%30.21 "Hg10 mi
Weather by CustomWeather, © 2019

See weather overview